Погода в Крыжополе

Украина / Винницкая область     48°22′52″N   28°52′03″E
темп.,
°C
ветер,
м/с
пор.,
м/с
влажн.,
%
обл.,
%
осадки,
мм/ч
давл.,
гПа
погр.,
м
22 октября, пт
пт2200:00+12зюз495112 0.0 1010255
03:00+13зюз41049100 0.0 1010261
06:00+13зюз4105999 0.0 1011312
09:00+14з496399 0.0 1012419
12:00+16зсз574741 0.0 10141202
15:00+19з683016 0.0 10132047
18:00+15з333920 0.0 101331
21:00+11сз22543 0.0 101515
23 октября, сб
сб2300:00+10зюз355865 0.0 101679
03:00+9зюз3663100 0.0 1016112
06:00+11з41161100 0.0 1015578
09:00+11зсз3866100 0.1 1017681
12:00+10сз69496 0.0 10191085
15:00+13сз79295 0.0 10191733
18:00+9сз48360 0.0 1020205
21:00+6зсз384999 0.0 1022157
24 октября, вс
вс2400:00+5зсз365857 0.0 1024113
03:00+5з41063100 0.0 1024308
06:00+3зсз410788 0.0 1025262
09:00+4зсз5118187 0.0 1027496
12:00+7сз71065100 0.0 10281158
15:00+8сз6948100 0.1 10271836
18:00+7сз61052100 0.0 10291325
21:00+6ссз595799 0.1 10311138
25 октября, пн
пн2500:00+3с276596 0.0 1032299
03:00+2сз336612 0.0 103328
06:00+1с35715 0.0 103381
09:00+2ссв24695 0.0 1035150
12:00+6св33460 0.0 1034855
15:00+9в11355 0.0 10331037
18:00+6вюв22425 0.0 103312
21:00+4юв35495 0.0 103367
26 октября, вт
вт2600:00+2юв48525 0.0 1033132
03:00+1ююв49564 0.0 1033153
06:00+1ююв49595 0.0 1032167
09:00+2ююв511535 0.0 1031314
12:00+8ю79416 0.0 1030759
15:00+11ю793455 0.0 1028941
18:00+8ююв4845100 0.0 1027180
21:00+6ююв51356100 0.0 1027365